Observations for Trim Patrick St
| Time | AQI | Temp °C | Hum % | Pres Pa | CO μg/m³ | H₂S μg/m³ | NO μg/m³ | NO₂ μg/m³ | O₃ μg/m³ | SO₂ μg/m³ | PM1 μg/m³ | PM2.5 μg/m³ | PM10 μg/m³ |
|---|---|---|---|---|---|---|---|---|---|---|---|---|---|
| Thursday 6 August 2026 | |||||||||||||
| 07:30 | 2 | 14 | 76 | 38,460 | 0.34 | 0 | 3.24 | 15.15 | 19.47 | 0 | 2.86 | 6.19 | 6.81 |
| 07:29 | 2 | 14 | 76 | 38,460 | 0.34 | 0.31 | 3.26 | 18.94 | 22.02 | 0 | 2.86 | 6.19 | 6.81 |
| 07:28 | 2 | 13.9 | 76 | 38,460 | 0.34 | 0.75 | 3.23 | 16.11 | 23.95 | 0 | 2.86 | 5.46 | 6.01 |
| 07:27 | 2 | 13.9 | 76 | 38,460 | 0.33 | 0.1 | 3.04 | 13.83 | 23.34 | 0 | 2.86 | 6.18 | 6.79 |
| 07:26 | 2 | 13.8 | 76 | 38,460 | 0.34 | 0.85 | 3.07 | 16.81 | 22.51 | 0 | 2.86 | 6.87 | 7.56 |
| 07:24 | 2 | 13.7 | 76 | 38,460 | 0.33 | 0 | 3.13 | 16.92 | 20.51 | 0 | 2 | 6.16 | 6.77 |
| 07:23 | 2 | 13.7 | 77 | 38,460 | 0.33 | 0 | 3.1 | 11.64 | 26.84 | 0 | 2.86 | 7.56 | 8.32 |
| 07:22 | 2 | 13.6 | 76 | 38,460 | 0.34 | 0.75 | 3.17 | 12.98 | 25.89 | 0 | 2 | 5.45 | 5.99 |
| 07:21 | 2 | 13.6 | 77 | 38,460 | 0.32 | 0.26 | 3.14 | 14.87 | 23.4 | 0 | 2 | 5.44 | 5.98 |
| 07:20 | 2 | 13.5 | 77 | 38,460 | 0.32 | 0 | 3.15 | 12.62 | 24.84 | 0 | 2.86 | 6.14 | 6.75 |
| 07:19 | 2 | 13.5 | 77 | 38,460 | 0.32 | 0.1 | 3.17 | 14.23 | 18.98 | 0 | 2 | 6.14 | 6.75 |
| 07:18 | 2 | 13.4 | 77 | 38,460 | 0.33 | 0.25 | 3.19 | 13.13 | 21.42 | 0 | 2.86 | 6.14 | 6.76 |
| 07:17 | 2 | 13.4 | 76 | 38,460 | 0.35 | 0 | 3.19 | 17.23 | 18.03 | 0 | 2.86 | 6.16 | 6.77 |
| 07:16 | 2 | 13.4 | 77 | 38,460 | 0.33 | 0 | 3.21 | 18.2 | 16.22 | 0 | 2 | 6.14 | 6.76 |
| 07:15 | 2 | 13.3 | 77 | 38,460 | 0.34 | 0 | 3.26 | 14 | 20.35 | 0 | 3.71 | 6.14 | 6.76 |
| 07:14 | 2 | 13.3 | 77 | 38,460 | 0.32 | 0 | 3.31 | 11.96 | 23.5 | 0 | 2 | 6.15 | 6.76 |
| 07:13 | 2 | 13.3 | 77 | 38,460 | 0.33 | 0 | 3.29 | 11.85 | 26.67 | 0 | 2.86 | 6.84 | 7.53 |
| 07:12 | 2 | 13.3 | 76 | 38,460 | 0.32 | 0 | 3.38 | 14.15 | 17.27 | 0 | 2.86 | 6.16 | 6.78 |
| 07:10 | 2 | 13.2 | 77 | 38,460 | 0.33 | 0 | 3.39 | 15.29 | 16.91 | 0 | 2 | 5.41 | 5.95 |
| 07:09 | 2 | 13.2 | 77 | 38,460 | 0.32 | 0 | 3.39 | 13.77 | 17.35 | 0 | 2.86 | 6.12 | 6.73 |